Regional Weather Roundup
Issued by NWS

Home | Current Version | Previous Version | Graphics & Text | Print | Product List | Glossary On
Versions: 1 2 3 4 5 6 7 8 9 10 11 12 13 14 15 16 17 18 19 20 21 22 23 24 25 26 27 28 29 30 31 32 33 34 35 36 37 38 39 40 41 42 43 44 45 46 47 48 49 50
000
ASUS43 KLSX 021310
RWRMO

WEATHER SUMMARY FOR MISSOURI
NATIONAL WEATHER SERVICE SPRINGFIELD MO
700 AM CST FRI DEC 02 2016

NOTE: "FAIR" INDICATES FEW OR NO CLOUDS BELOW 12,000 FEET WITH NO
       SIGNIFICANT WEATHER AND/OR OBSTRUCTIONS TO VISIBILITY.
       CURRENT SKY AND/OR WEATHER CONDITIONS ARE NOT AVAILABLE FOR
       CHILLICOTHE AND FARMINGTON.

MOZ001>031-035>038-043-044-053-054-021400-
...NORTHERN AND WESTERN MISSOURI...

CITY           SKY/WX    TMP DP  RH WIND       PRES   REMARKS
KANSAS CTY INT PTCLDY    29  22  75 CALM      30.22R
KANSAS C DTWN  PTCLDY    27  25  92 CALM      30.23R
LEE`S SUMMIT   PTCLDY    28  23  81 N5        30.21R WCI  23
ST JOSEPH      CLOUDY    19  17  92 CALM      30.24R
CHILLICOTHE      N/A     21  19  92 CALM      30.24R
KIRKSVILLE     CLEAR     23  21  92 W5        30.20R WCI  17

$$
MOZ066>068-077>081-088>096-101>105-021400-
...SOUTHWEST MISSOURI...

CITY           SKY/WX    TMP DP  RH WIND       PRES   REMARKS
SPRINGFIELD    CLEAR     33  26  75 SE3       30.19R
JOPLIN         CLEAR     37  27  67 E6        30.19R
BRANSON        CLEAR     32  25  74 CALM      30.19R

$$
MOZ032>034-039>042-045>050-055>058-069>072-021400-
...CENTRAL MISSOURI...

CITY           SKY/WX    TMP DP  RH WIND       PRES   REMARKS
COLUMBIA       CLOUDY    28  24  85 NW6       30.21R WCI  22
JEFFERSON CITY CLOUDY    28  25  88 CALM      30.23R
ROLLA          PTCLDY    28  24  85 SW6       30.19R WCI  22
SEDALIA        CLOUDY    34  25  69 CALM      30.22R
WHITEMAN AFB   PTCLDY    30  29  95 CALM      30.21R
WARRENSBURG    CLOUDY    28  27  93 CALM      30.22R
OSAGE BEACH    CLOUDY    31  27  85 CALM      30.23R

$$
MOZ051-052-059>065-021400-
...EAST CENTRAL MISSOURI...

CITY           SKY/WX    TMP DP  RH WIND       PRES   REMARKS
ST LOUIS INTL  PTCLDY    30  23  75 CALM      30.22R
SPIRIT OF STL  CLEAR     23  22  96 CALM      30.23R
ST CHARLES     CLEAR     25  24  96 CALM      30.23R FOG

$$
MOZ072>076-082>087-097>100-106>115-021400-
...SOUTH CENTRAL AND SOUTHEAST MISSOURI...

CITY           SKY/WX    TMP DP  RH WIND       PRES   REMARKS
CAPE GIRARDEAU PTCLDY    27  26  96 CALM      30.23R
FARMINGTON     CLEAR     23  21  92 CALM      30.22R
POPLAR BLUFF   CLEAR     27  25  92 N6        30.23R WCI  20
WEST PLAINS    CLEAR     29  24  82 CALM      30.21R

$$




USA.gov is the U.S. government's official web portal to all federal, state and local government web resources and services.